DW8522 Weather Reports


time (UTC)temp
F
wind
direction
speed
knots
gust
knots
rain 1hr
in
rain 24hr
in
rain mn
in
humidity
%
barometer
mb
20260902024601 62 253 3.5 14.8 0.00 0.00 0.00 71 1017.6
20260902023102 62 226 3.5 9.6 0.00 0.00 0.00 68 1017.5
20260902021608 63 173 5.2 11.3 0.00 0.00 0.00 67 1017.7
20260902020104 63 240 5.2 10.4 0.00 0.00 0.00 67 1017.7
20260902014559 63 222 1.7 10.4 0.00 0.00 0.00 69 1017.7
20260902013156 63 204 2.6 7.8 0.00 0.00 0.00 70 1017.9
20260902011554 63 263 1.7 8.7 0.00 0.00 0.00 69 1018.0
20260902010054 63 317 3.5 11.3 0.00 0.00 0.00 70 1018.2
20260902004551 62 183 0.9 4.3 0.00 0.00 0.00 73 1018.5
20260902003051 62 150 0.9 2.6 0.00 0.00 0.00 74 1018.3
20260902001550 62 181 0.9 10.4 0.00 0.00 0.00 73 1018.6
20260902000052 61 207 2.6 10.4 0.00 0.00 0.00 74 1018.6
20260901234553 60 328 2.6 6.1 0.00 0.00 0.00 76 1019.0
20260901233041 60 285 2.6 8.7 0.00 0.00 0.00 76 1019.0
20260901231537 59 167 1.7 7.0 0.00 0.00 0.00 78 1019.0
20260901230042 59 174 1.7 3.5 0.00 0.00 0.00 77 1019.2
20260901224533 58 170 1.7 5.2 0.00 0.00 0.00 78 1019.3
20260901223031 58 188 0.9 5.2 0.00 0.00 0.00 79 1019.4
20260901221540 57 194 2.6 10.4 0.00 0.00 0.00 79 1019.5
20260901220030 57 138 1.7 5.2 0.00 0.00 0.00 79 1019.5
20260901214529 57 138 1.7 8.7 0.00 0.00 0.00 79 1019.4
20260901213053 57 262 2.6 8.7 0.00 0.00 0.00 78 1019.5
20260901211537 57 197 3.5 10.4 0.00 0.00 0.00 80 1019.4
20260901210031 56 335 3.5 10.4 0.00 0.00 0.00 81 1019.4
20260901204520 56 258 3.5 8.7 0.00 0.00 0.00 83 1019.3
20260901203031 55 248 4.3 10.4 0.00 0.00 0.00 83 1019.4
20260901201518 55 207 3.5 10.4 0.00 0.00 0.00 83 1019.2
20260901200034 54 210 1.7 6.1 0.00 0.00 0.00 82 1019.0
20260901194510 54 194 1.7 7.0 0.00 0.00 0.00 83 1018.9
20260901193009 53 242 1.7 4.3 0.00 0.00 0.00 83 1018.6
20260901191508 53 171 0.9 6.1 0.00 0.00 0.00 83 1018.5
20260901190007 52 219 1.7 6.1 0.00 0.00 0.00 83 1018.4
20260901184505 52 204 0.9 3.5 0.00 0.00 0.00 83 1018.2
20260901183006 52 155 0.0 3.5 0.00 0.00 0.00 82 1018.2
20260901181507 52 207 0.9 5.2 0.00 0.00 0.00 81 1018.2
20260901180100 52 169 1.7 7.8 0.00 0.00 0.00 80 1018.0
20260901174559 52 165 0.0 5.2 0.00 0.00 0.00 80 1017.8
20260901173057 52 184 0.0 5.2 0.00 0.00 0.00 79 1017.6
20260901171607 52 150 0.9 7.0 0.00 0.00 0.00 79 1017.4
20260901170057 52 226 0.9 7.0 0.00 0.00 0.00 79 1017.4
20260901164556 53 272 2.6 10.4 0.00 0.00 0.00 78 1017.2
20260901163054 53 210 1.7 10.4 0.00 0.00 0.00 77 1017.2
20260901161652 53 235 2.6 8.7 0.00 0.00 0.00 77 1016.8
20260901160054 53 215 2.6 6.1 0.00 0.00 0.00 76 1016.9
20260901154550 53 158 4.3 10.4 0.00 0.00 0.00 76 1017.0
20260901153103 53 214 0.9 7.8 0.00 0.00 0.00 77 1016.9
20260901151549 53 166 1.7 7.8 0.00 0.00 0.00 77 1017.1
20260901150046 53 215 2.6 10.4 0.00 0.00 0.00 77 1017.1
20260901144543 53 215 1.7 8.7 0.00 0.00 0.00 78 1017.3
20260901143041 52 171 0.0 4.3 0.00 0.00 0.00 80 1017.5
20260901141552 52 136 0.9 3.5 0.00 0.00 0.00 81 1017.7
20260901140043 52 149 0.9 4.3 0.00 0.00 0.00 81 1017.5
20260901134538 52 164 0.9 6.1 0.00 0.00 0.00 82 1017.6
20260901133040 52 208 1.7 7.8 0.00 0.00 0.00 81 1017.6
20260901131534 52 197 0.9 4.3 0.00 0.00 0.00 79 1018.0
20260901130032 53 139 0.9 6.1 0.00 0.00 0.00 77 1017.9
20260901124530 52 156 0.9 5.2 0.00 0.00 0.00 76 1017.7
20260901123029 53 172 1.7 7.8 0.00 0.00 0.00 75 1017.9
20260901121535 53 194 1.7 8.7 0.00 0.00 0.00 74 1017.9
20260901120038 53 219 2.6 10.4 0.00 0.00 0.00 75 1017.7
20260901114523 53 211 3.5 9.6 0.00 0.00 0.00 75 1017.7
20260901113020 53 198 2.6 8.7 0.00 0.00 0.00 75 1017.7
20260901111519 53 257 4.3 11.3 0.00 0.00 0.00 75 1017.6
20260901110016 53 219 3.5 10.4 0.00 0.00 0.00 76 1017.5
20260901104513 53 274 2.6 8.7 0.00 0.00 0.00 76 1017.5
20260901103011 53 216 4.3 11.3 0.00 0.00 0.00 75 1017.4
20260901101510 53 205 3.5 8.7 0.00 0.00 0.00 76 1017.3
20260901100010 53 207 2.6 9.6 0.00 0.00 0.00 76 1017.3
20260901094516 54 228 2.6 13.9 0.00 0.00 0.00 74 1017.2
20260901093006 54 190 3.5 7.0 0.00 0.00 0.00 75 1017.2
20260901091506 53 249 2.6 12.2 0.00 0.00 0.00 75 1017.3
20260901090008 54 166 2.6 9.6 0.00 0.00 0.00 76 1017.2
20260901084504 54 270 3.5 9.6 0.00 0.00 0.00 75 1017.2
20260901083059 54 193 2.6 8.7 0.00 0.00 0.00 75 1016.9
20260901081557 54 274 3.5 0.0 0.00 0.00 0.00 74 1016.8
20260901080055 54 271 4.3 11.3 0.00 0.00 0.00 72 1016.9
20260901074552 54 212 4.3 8.7 0.00 0.00 0.00 70 1016.6
20260901073051 54 214 4.3 8.7 0.00 0.00 0.00 70 1016.4
20260901071558 54 216 3.5 8.7 0.00 0.00 0.00 70 1016.5
20260901070046 55 208 3.5 9.6 0.00 0.00 0.00 70 1016.4
20260901064544 55 159 3.5 9.6 0.00 0.00 0.00 70 1016.0
20260901063043 55 219 2.6 7.0 0.00 0.00 0.00 70 1016.0
20260901061543 56 252 2.6 8.7 0.00 0.00 0.00 71 1015.8
20260901060039 56 191 1.7 6.1 0.00 0.00 0.00 71 1015.6
20260901054538 56 252 3.5 13.0 0.00 0.00 0.00 70 1015.3
20260901053042 57 294 2.6 10.4 0.00 0.00 0.00 70 1015.1
20260901051534 58 238 3.5 13.9 0.00 0.00 0.00 66 1015.1
20260901050034 59 259 4.3 9.6 0.00 0.00 0.00 64 1014.8
20260901044533 60 319 4.3 14.8 0.00 0.00 0.00 61 1014.8
20260901043030 60 211 4.3 12.2 0.00 0.00 0.00 59 1014.5
20260901041529 60 212 5.2 11.3 0.00 0.00 0.00 58 1014.3
20260901040029 61 204 3.5 9.6 0.00 0.00 0.00 60 1014.3
20260901034532 61 304 3.5 9.6 0.00 0.00 0.00 60 1014.3
20260901033026 61 231 6.1 17.4 0.00 0.00 0.00 59 1014.2
20260901031526 62 210 3.5 10.4 0.00 0.00 0.00 57 1014.1
20260901030027 62 246 2.6 10.4 0.00 0.00 0.00 56 1013.8